CST,Max TemperatureF,Mean TemperatureF,Min TemperatureF,Max Dew PointF,MeanDew PointF,Min DewpointF,Max Humidity, Mean Humidity, Min Humidity, Max Sea Level PressureIn, Mean Sea Level PressureIn, Min Sea Level PressureIn, Max VisibilityMiles, Mean VisibilityMiles, Min VisibilityMiles, Max Wind SpeedMPH, Mean Wind SpeedMPH, Max Gust SpeedMPH,PrecipitationIn, CloudCover, Events, WindDirDegrees
2012-12-1,69,60,51,52,48,45,82,67,49,30.24,30.18,30.12,10,10,10,17,9,24,0.00,3,,162
2012-12-2,71,64,57,61,58,48,94,84,69,30.24,30.17,30.13,10,10,7,18,11,23,0.00,5,,174
2012-12-3,71,64,57,59,57,54,94,75,53,30.18,30.12,30.07,10,10,5,17,11,22,0.00,2,,170
2012-12-4,69,61,53,63,58,52,100,88,78,30.24,30.16,30.10,10,9,3,18,11,22,0.57,6,Rain-Thunderstorm,197
2012-12-5,60,55,50,52,47,41,94,77,55,30.29,30.20,30.10,10,9,2,10,7,,0.00,7,,21
2012-12-6,60,56,51,59,55,41,100,91,62,30.09,30.01,29.94,10,6,2,6,3,,0.02,8,Rain,139
2012-12-7,68,62,55,61,56,54,100,88,64,29.97,29.92,29.85,10,6,0,14,4,,0.00,6,Fog,187
2012-12-8,62,60,57,61,58,55,100,92,88,29.95,29.91,29.88,10,5,1,10,6,,1.03,7,Rain-Thunderstorm,175
2012-12-9,69,63,55,64,61,54,100,88,78,29.93,29.86,29.77,10,10,5,20,10,26,0.53,6,Rain-Thunderstorm,191
2012-12-10,55,44,32,54,35,27,94,82,66,30.12,29.95,29.80,10,9,3,23,16,28,0.50,5,Rain,338
2012-12-11,41,36,30,32,29,27,93,83,61,30.29,30.20,30.11,10,10,7,13,7,,0.00,1,,348
2012-12-12,50,40,30,32,30,23,100,77,37,30.39,30.33,30.28,10,9,4,8,3,,0.00,0,,2
2012-12-13,53,42,30,36,30,27,93,73,38,30.42,30.35,30.29,10,10,3,5,1,,0.00,0,,187
2012-12-14,57,44,32,46,37,28,100,75,48,30.32,30.22,30.07,10,9,3,12,3,,0.08,1,Rain,156
2012-12-15,62,56,50,61,54,46,94,88,77,30.07,29.93,29.84,10,10,10,21,13,25,0.00,6,Rain-Thunderstorm,163
2012-12-16,62,60,59,61,59,55,100,94,88,29.85,29.79,29.71,10,8,0,14,9,18,0.01,6,Fog-Rain,181
2012-12-17,62,52,41,57,50,37,100,86,52,29.89,29.76,29.68,10,9,5,16,8,21,0.00,4,,217
2012-12-18,60,48,35,46,41,36,100,81,55,29.96,29.90,29.84,10,7,0,18,6,23,0.00,0,Fog,171
2012-12-19,66,55,44,55,48,41,93,75,55,29.97,29.87,29.69,10,10,10,21,9,25,0.00,1,Rain,160
2012-12-20,66,52,37,63,37,19,100,65,45,30.21,29.89,29.55,10,10,2,38,23,56,0.12,4,Rain-Thunderstorm,260
2012-12-21,46,39,32,30,22,16,93,56,29,30.39,30.33,30.22,10,10,10,17,11,22,0.00,0,,280
2012-12-22,59,44,28,36,32,27,93,71,34,30.36,30.27,30.13,10,10,10,12,5,,0.00,0,,171
2012-12-23,55,48,42,54,45,32,100,84,58,30.12,29.99,29.84,10,10,5,12,8,16,0.05,6,Rain,175
2012-12-24,55,48,42,54,48,39,100,91,77,29.99,29.90,29.79,10,8,0,15,7,21,0.02,5,Fog-Rain,358
2012-12-25,42,38,33,41,35,32,100,91,81,30.00,29.81,29.53,10,6,2,29,15,38,0.43,6,Rain-Snow,21
2012-12-26,33,32,30,32,29,27,100,91,80,30.23,30.01,29.60,10,8,1,31,20,40,0.00,6,Snow,303
2012-12-27,41,34,28,32,30,28,100,88,65,30.24,30.15,30.05,10,8,1,7,2,,0.00,1,,99
2012-12-28,42,38,33,41,35,32,100,93,87,30.10,29.95,29.80,10,6,2,17,6,26,0.66,8,Rain,56
2012-12-29,35,32,28,34,28,23,100,82,60,30.45,30.24,30.00,10,9,7,20,10,24,0.00,4,,302
2012-12-30,41,34,26,32,29,25,100,81,53,30.57,30.46,30.36,10,9,3,7,1,,0.00,0,,160
2012-12-31,46,40,33,43,35,32,100,82,61,30.35,30.19,30.00,10,9,2,15,5,17,0.46,6,Rain,145